Location: Bishop�s Knoyle
(51.0728°N, 2.1714°W)
Time: 20:19:43
(UTC+00:00)

N. Korean satellite - Pass Details

Date: 29 September 2021
Orbit: 450 x 495 km, 97.3° (Epoch: 25 October)

Event Time Altitude Azimuth Distance (km) Brightness Sun altitude
Rises 04:45:33 0° 24° (NNE) 2,540 10.8 -13.4°
Reaches altitude 10° 04:47:54 10° 39° (NE) 1,664 10.1 -13.0°
Maximum altitude 04:50:50 24° 94° (E) 1,053 9.2 -12.6°
Drops below altitude 10° 04:53:48 10° 149° (SSE) 1,672 9.5 -12.1°
Sets 04:56:10 0° 164° (SSE) 2,554 10.3 -11.8°
